Tracking 35274 objects as of 10-Sep-2026
HD Live streaming from Space Station
objects crossing your sky now

COSMOS 1588 DEB


COSMOS 1588 DEB is no longer on orbit


NORAD ID: 16709
Int'l Code: 1984-083AT
Launch date: August 7, 1984
Source: Commonwealth of Independent States (former USSR) (CIS)
Launch site: TYURATAM MISSILE AND SPACE COMPLEX (TTMTR)
Decay date: 1986-07-16

Note: This is SATELLITE DEBRIS
Your satellite tracking list
Your tracking list is empty




NASA's NSSDC Master Catalog

Two Line Element Set (TLE):
1 16709U 84083AT  86183.98178922  .00433845 +00000-0 +16052-2 0  9991
2 16709 065.0183 164.0507 0020325 264.2871 104.5060 15.87436379019934
Source of the keplerian elements: AFSPC